Hlavní strana
METAR-TAF:

METAR-TAF

Letiště :

Indianapolis, Indiana, Spojené státy americké

zeměpisná šířka: 39-49-30N, zeměpisná délka: 086-17-45W, výška: 250 m

Aktuální stav počasí

Zpráva byla vytvořena před 1 hodinou a 12 minutami, v 01:53 UTC
Bezvětří
Teplota 7°C
Vlhkost vzduchu 70%
Tlak 1029 hPa
Viditelnost: 16.1 km
Jasno

METAR: KEYE 190153Z AUTO 00000KT 10SM CLR 07/02 A3040 RMK AO2 SLP299 T00670017 PWINO $

Čas: 23:05 (03:05 UTC)


TAF: chybějící

Stav a předpovědi počasí z více než 4 000 letišť (zprávy METAR a TAF).

Červené a žluté tečky na mapě představují dostupné meteorologické stanice.

Když kurzor umístíte na tečku, zobrazí se název stanice.

Pak kliknutím zobrazíte stav a předpověď počasí.

Chcete-li změnit mapu, kliknutím na zelené tlačítko se znaménkem +mapu přiblížíte, kliknutím na zelené tlačítko se znaménkem – mapu oddálíte a kliknutím na zelené šipky přejdete na sousední mapy.


METAR-TAF: